OE5RPP Weather Reports


time (UTC)temp
C
wind
direction
speed
KPH
gust
KPH
rain 1hr
cm
rain 24hr
cm
rain mn
cm
humidity
%
barometer
mb
20260906023742 12 270 0.0 0.0 0.00 0.41 0.00 55 1028.9
20260906022742 12 270 0.0 0.0 0.00 0.41 0.00 53 1028.9
20260906021741 13 270 0.0 0.0 0.00 0.41 0.00 53 1028.9
20260906020742 13 270 0.0 0.0 0.00 0.41 0.00 50 1028.9
20260906015742 13 270 0.0 0.0 0.00 0.41 0.00 49 1028.9
20260906014741 13 270 0.0 0.0 0.00 0.41 0.00 49 1028.9
20260906013740 13 270 0.0 0.0 0.00 0.41 0.00 48 1028.9
20260906012740 13 270 0.0 0.0 0.00 0.41 0.00 47 1028.9
20260906011741 13 270 0.0 0.0 0.00 0.41 0.00 46 1028.9
20260906010742 13 270 0.0 0.0 0.00 0.41 0.00 45 1028.9
20260906005742 13 270 0.0 0.0 0.00 0.41 0.00 42 1028.9
20260906004718 14 270 0.0 0.0 0.00 0.41 0.00 40 1028.9
20260906003719 14 270 0.0 0.0 0.00 0.41 0.00 37 1028.9
20260906002719 15 270 0.0 0.0 0.00 0.41 0.00 35 1028.9
20260906001718 16 270 0.0 0.0 0.00 0.41 0.00 35 1028.9
20260906000719 16 315 0.0 0.0 0.00 0.41 0.00 35 1028.9
20260905235719 16 247 0.0 0.0 0.00 0.41 0.00 36 1028.9
20260905234718 17 247 1.6 0.0 0.00 0.41 0.00 36 1028.9
20260905233719 17 270 0.0 0.0 0.00 0.41 0.00 43 1028.9
20260905232719 17 180 0.0 0.0 0.00 0.41 0.00 43 1028.9
20260905231718 17 247 3.2 6.4 0.00 0.41 0.00 45 1028.9
20260905230719 17 247 1.6 0.0 0.00 0.41 0.00 47 1028.9
20260905225719 17 270 3.2 4.8 0.00 0.41 0.00 48 1028.9
20260905224718 17 247 0.0 0.0 0.00 0.41 0.00 49 1027.9
20260905223718 17 270 4.8 0.0 0.00 0.41 0.00 50 1027.9
20260905222718 16 225 4.8 8.0 0.00 0.41 0.00 49 1027.9
20260905221719 17 270 0.0 0.0 0.00 0.41 0.00 53 1027.9
20260905220718 17 270 3.2 6.4 0.00 0.41 0.00 55 1027.9
20260905215718 17 202 4.8 0.0 0.00 0.41 0.41 56 1027.9
20260905214719 17 202 3.2 0.0 0.00 0.41 0.41 58 1027.9
20260905213718 17 315 0.0 0.0 0.00 0.41 0.41 59 1027.9
20260905212718 17 270 1.6 0.0 0.00 0.41 0.41 59 1027.9
20260905211717 16 315 0.0 0.0 0.00 0.41 0.41 57 1027.9
20260905210718 16 292 0.0 0.0 0.00 0.41 0.41 58 1027.9
20260905205718 16 292 0.0 0.0 0.10 0.41 0.41 55 1027.9
20260905204718 16 292 0.0 6.4 0.00 0.30 0.30 51 1027.9
20260905203717 16 337 0.0 1.6 0.00 0.30 0.30 43 1026.9
20260905202717 17 202 0.0 0.0 0.00 0.30 0.30 42 1026.9
20260905201719 17 157 4.8 8.0 0.00 0.30 0.30 42 1026.9
20260905200718 17 180 0.0 0.0 0.00 0.30 0.30 40 1026.9
20260905195717 17 135 0.0 0.0 0.00 0.30 0.30 37 1026.9
20260905194718 17 180 0.0 0.0 0.00 0.30 0.30 36 1026.9
20260905193719 17 157 0.0 0.0 0.00 0.30 0.30 35 1026.9
20260905192719 17 157 1.6 0.0 0.00 0.30 0.30 35 1026.9
20260905191718 17 135 1.6 0.0 0.00 0.30 0.30 34 1026.9
20260905190718 18 202 3.2 0.0 0.00 0.30 0.30 34 1026.9
20260905185718 18 247 1.6 3.2 0.00 0.30 0.30 34 1026.9
20260905184719 18 112 0.0 0.0 0.00 0.30 0.30 32 1026.9
20260905183719 18 180 1.6 0.0 0.00 0.30 0.30 32 1026.9
20260905182719 18 202 1.6 4.8 0.00 0.30 0.30 31 1026.9
20260905181718 18 247 0.0 0.0 0.00 0.30 0.30 31 1026.9
20260905180719 18 225 1.6 0.0 0.00 0.30 0.30 27 1025.9
20260905175718 18 247 1.6 9.7 0.00 0.30 0.30 27 1025.9
20260905174719 18 180 0.0 0.0 0.00 0.30 0.30 21 1025.9
20260905173718 18 180 0.0 0.0 0.00 0.30 0.30 21 1025.9
20260905172718 19 247 0.0 0.0 0.00 0.30 0.30 21 1025.9
20260905171717 19 202 0.0 0.0 0.00 0.30 0.30 21 1025.9
20260905170718 20 202 0.0 0.0 0.00 0.30 0.30 20 1025.9
20260905165718 21 180 0.0 0.0 0.00 0.30 0.30 20 1025.9
20260905164718 21 202 1.6 0.0 0.00 0.30 0.30 20 1025.9
20260905163719 21 270 0.0 0.0 0.00 0.30 0.30 20 1025.9
20260905162718 21 202 0.0 0.0 0.00 0.30 0.30 18 1025.9
20260905161719 21 270 0.0 0.0 0.00 0.30 0.30 18 1025.9
20260905160718 21 270 8.0 6.4 0.00 0.30 0.30 20 1025.9
20260905155718 21 270 4.8 4.8 0.00 0.30 0.30 20 1025.9
20260905154717 21 225 3.2 4.8 0.00 0.30 0.30 20 1025.9
20260905153719 21 247 1.6 4.8 0.00 0.30 0.30 20 1025.9
20260905152719 21 270 1.6 0.0 0.00 0.30 0.30 20 1025.9
20260905151718 21 270 3.2 0.0 0.00 0.30 0.30 22 1025.9
20260905150719 20 270 8.0 11.3 0.00 0.30 0.30 23 1025.9
20260905145719 20 270 14.5 11.3 0.00 0.30 0.30 23 1025.9
20260905144718 20 292 9.7 8.0 0.00 0.30 0.30 23 1025.9
20260905143717 20 270 12.9 9.7 0.00 0.30 0.30 23 1025.9
20260905142719 20 180 9.7 8.0 0.00 0.30 0.30 30 1025.9
20260905141718 20 247 9.7 12.9 0.00 0.30 0.30 30 1025.9
20260905140718 20 247 9.7 8.0 0.00 0.30 0.30 30 1025.9
20260905135718 20 202 9.7 4.8 0.00 0.30 0.30 26 1025.9
20260905134719 20 247 11.3 11.3 0.00 0.30 0.30 26 1025.9
20260905133718 20 247 1.6 0.0 0.00 0.30 0.30 26 1025.9
20260905132718 20 247 9.7 9.7 0.00 0.30 0.30 23 1025.9
20260905131719 21 315 9.7 4.8 0.00 0.30 0.30 22 1025.9
20260905130719 21 225 6.4 6.4 0.00 0.30 0.30 22 1025.9
20260905125719 20 157 6.4 9.7 0.00 0.30 0.30 23 1025.9
20260905124717 20 0 1.6 6.4 0.00 0.30 0.30 23 1025.9
20260905123719 21 180 4.8 0.0 0.00 0.30 0.30 30 1025.9
20260905122719 20 157 3.2 0.0 0.00 0.30 0.30 31 1025.9
20260905121718 20 270 1.6 0.0 0.00 0.30 0.30 30 1025.9
20260905120718 20 202 4.8 6.4 0.00 0.30 0.30 26 1025.9
20260905115718 20 180 0.0 0.0 0.00 0.30 0.30 26 1025.9
20260905114719 20 180 0.0 0.0 0.00 0.30 0.30 26 1025.9
20260905113719 20 315 0.0 0.0 0.00 0.30 0.30 30 1025.9
20260905112718 20 247 3.2 0.0 0.00 0.30 0.30 26 1025.9
20260905111719 21 270 0.0 0.0 0.00 0.30 0.30 31 1025.9
20260905110718 20 157 0.0 0.0 0.00 0.30 0.30 34 1025.9
20260905105718 20 247 0.0 0.0 0.00 0.30 0.30 31 1025.9
20260905104717 19 247 0.0 0.0 0.00 0.30 0.30 32 1025.9
20260905103718 19 270 0.0 0.0 0.00 0.30 0.30 31 1025.9
20260905102718 19 202 3.2 6.4 0.00 0.30 0.30 31 1025.9
20260905101718 19 180 1.6 6.4 0.00 0.30 0.30 31 1025.9
20260905100719 19 180 1.6 0.0 0.00 0.30 0.30 35 1025.9
20260905095719 19 180 0.0 0.0 0.00 0.30 0.30 35 1025.9
20260905094718 19 135 0.0 0.0 0.00 0.30 0.30 40 1025.9
20260905093719 19 180 4.8 0.0 0.00 0.30 0.30 42 1025.9
20260905092719 19 180 0.0 0.0 0.00 0.30 0.30 42 1025.9
20260905091718 19 180 4.8 4.8 0.00 0.30 0.30 45 1025.9
20260905090718 19 202 6.4 11.3 0.00 0.30 0.30 47 1025.9
20260905085718 18 157 3.2 0.0 0.00 0.30 0.30 50 1025.9
20260905084719 18 180 8.0 8.0 0.00 0.30 0.30 53 1025.9
20260905083718 17 157 6.4 11.3 0.00 0.30 0.30 53 1025.9
20260905082718 17 180 4.8 0.0 0.00 0.30 0.30 54 1025.9
20260905081718 16 180 3.2 4.8 0.00 0.30 0.30 54 1025.9
20260905080719 16 292 0.0 0.0 0.00 0.30 0.30 53 1025.9
20260905075718 16 225 0.0 0.0 0.10 0.30 0.30 54 1025.9
20260905074718 16 202 0.0 0.0 0.10 0.30 0.30 53 1025.9
20260905073718 15 180 0.0 6.4 0.00 0.20 0.20 51 1025.9
20260905072718 15 180 0.0 0.0 0.00 0.20 0.20 50 1025.9
20260905071719 15 202 0.0 0.0 0.00 0.20 0.20 49 1025.9
20260905070718 15 202 0.0 0.0 0.00 0.20 0.20 49 1025.9
20260905065718 15 202 0.0 0.0 0.10 0.20 0.20 47 1025.9
20260905064719 15 315 0.0 0.0 0.10 0.20 0.20 47 1025.9
20260905063718 15 270 0.0 0.0 0.00 0.10 0.10 45 1025.9
20260905062719 15 247 0.0 0.0 0.00 0.10 0.10 45 1025.9
20260905061718 16 0 6.4 6.4 0.00 0.10 0.10 36 1025.9
20260905060719 16 337 0.0 0.0 0.00 0.10 0.10 35 1024.9
20260905055719 16 0 3.2 0.0 0.00 0.10 0.10 34 1024.9
20260905054717 16 22 8.0 11.3 0.00 0.10 0.10 32 1024.9
20260905053718 17 337 11.3 12.9 0.00 0.10 0.10 32 1023.9
20260905052718 17 0 0.0 0.0 0.00 0.10 0.10 37 1023.9
20260905051717 17 0 0.0 4.8 0.00 0.10 0.10 37 1023.9
20260905050719 17 315 3.2 0.0 0.00 0.10 0.10 41 1022.9
20260905045719 17 22 6.4 4.8 0.10 0.10 0.10 48 1022.9
20260905044719 17 315 0.0 0.0 0.10 0.10 0.10 50 1022.9
20260905043717 17 337 0.0 0.0 0.10 0.10 0.10 47 1021.9
20260905042717 18 315 0.0 0.0 0.10 0.10 0.10 47 1021.9
20260905041719 18 315 3.2 0.0 0.10 0.10 0.10 43 1021.9
20260905040718 20 270 1.6 0.0 0.10 0.10 0.10 41 1021.9
20260905035718 20 292 8.0 0.0 0.00 0.00 0.00 36 1021.9
20260905034717 20 247 0.0 0.0 0.00 0.00 0.00 36 1020.9
20260905033718 20 270 3.2 0.0 0.00 0.00 0.00 34 1020.9
20260905032718 20 270 1.6 0.0 0.00 0.00 0.00 36 1020.9
20260905031718 20 270 0.0 0.0 0.00 0.00 0.00 41 1019.9
20260905030717 20 180 1.6 0.0 0.00 0.00 0.00 42 1020.9
20260905025717 19 180 4.8 0.0 0.00 0.00 0.00 45 1020.9
20260905024719 19 157 4.8 0.0 0.00 0.00 0.00 42 1020.9